Time,TemperatureF,DewpointF,PressureIn,WindDirection,WindDirectionDegrees,WindSpeedMPH,WindSpeedGustMPH,Humidity,HourlyPrecipIn,Conditions,Clouds,dailyrainin,SoftwareType,DateUTC
2013-10-07 00:01:00,46.6,41.1,29.83,SW,225,0.0,0.0,81,0.00,,,0.00,WUHU21623XXSP,2013-10-07 04:01:00,
2013-10-07 00:06:00,46.6,41.1,29.83,SW,225,0.0,0.0,81,0.00,,,0.00,WUHU21623XXSP,2013-10-07 04:06:00,
2013-10-07 00:11:00,46.2,40.8,29.83,SW,225,0.0,0.0,81,0.00,,,0.00,WUHU21623XXSP,2013-10-07 04:11:00,
2013-10-07 00:16:00,46.0,40.6,29.83,SW,225,0.0,0.0,81,0.00,,,0.00,WUHU21623XXSP,2013-10-07 04:16:00,
2013-10-07 00:21:00,46.0,40.6,29.83,SW,225,0.0,0.0,81,0.00,,,0.00,WUHU21623XXSP,2013-10-07 04:21:00,
2013-10-07 00:26:00,46.0,40.6,29.83,SW,225,0.0,0.0,81,0.00,,,0.00,WUHU21623XXSP,2013-10-07 04:26:00,
2013-10-07 00:31:00,46.0,40.6,29.83,SW,225,0.0,0.0,81,0.00,,,0.00,WUHU21623XXSP,2013-10-07 04:31:00,
2013-10-07 00:36:00,45.7,40.2,29.82,SW,225,0.0,0.0,81,0.00,,,0.00,WUHU21623XXSP,2013-10-07 04:36:00,
2013-10-07 00:41:00,45.7,40.2,29.83,SW,225,0.0,0.0,81,0.00,,,0.00,WUHU21623XXSP,2013-10-07 04:41:00,
2013-10-07 00:46:00,45.7,40.2,29.82,SW,225,0.0,0.0,81,0.00,,,0.00,WUHU21623XXSP,2013-10-07 04:46:00,
2013-10-07 00:51:00,45.7,40.2,29.83,SW,225,0.0,0.0,81,0.00,,,0.00,WUHU21623XXSP,2013-10-07 04:51:00,
2013-10-07 00:56:00,45.7,40.2,29.82,SW,225,0.0,0.0,81,0.00,,,0.00,WUHU21623XXSP,2013-10-07 04:56:00,
2013-10-07 01:01:00,45.7,40.2,29.82,SW,225,0.0,0.0,81,0.00,,,0.00,WUHU21623XXSP,2013-10-07 05:01:00,
2013-10-07 02:48:00,44.4,39.9,29.83,North,0,0.0,0.0,84,0.00,,,0.00,WUHU21623XXSP,2013-10-07 06:48:00,
2013-10-07 02:52:00,44.4,39.9,29.83,SW,225,0.0,0.0,84,0.00,,,0.00,WUHU21623XXSP,2013-10-07 06:52:00,
2013-10-07 02:57:00,44.4,39.9,29.83,SW,225,0.0,0.0,84,0.00,,,0.00,WUHU21623XXSP,2013-10-07 06:57:00,
2013-10-07 03:02:00,44.4,39.9,29.83,SW,225,0.0,0.0,84,0.00,,,0.00,WUHU21623XXSP,2013-10-07 07:02:00,
2013-10-07 03:10:00,44.4,39.9,29.83,SW,225,0.0,0.0,84,0.00,,,0.00,WUHU21623XXSP,2013-10-07 07:10:00,
2013-10-07 03:15:00,44.4,39.9,29.82,SW,225,0.0,0.0,84,0.00,,,0.00,WUHU21623XXSP,2013-10-07 07:15:00,
2013-10-07 03:20:00,44.4,39.9,29.82,SW,225,0.0,0.0,84,0.00,,,0.00,WUHU21623XXSP,2013-10-07 07:20:00,
2013-10-07 03:22:00,44.4,39.9,29.83,North,0,0.0,0.0,84,0.00,,,0.00,WUHU21623XXSP,2013-10-07 07:22:00,
2013-10-07 03:25:00,44.4,39.9,29.83,SW,225,0.0,0.0,84,0.00,,,0.00,WUHU21623XXSP,2013-10-07 07:25:00,
2013-10-07 03:30:00,44.4,39.9,29.83,North,0,0.0,0.0,84,0.00,,,0.00,WUHU21623XXSP,2013-10-07 07:30:00,
2013-10-07 04:13:00,45.1,41.2,29.82,SSW,202,0.0,0.0,86,0.00,,,0.00,WUHU21623XXSP,2013-10-07 08:13:00,
2013-10-07 04:18:00,45.1,41.2,29.82,SW,225,0.0,0.0,86,0.00,,,0.00,WUHU21623XXSP,2013-10-07 08:18:00,
2013-10-07 04:23:00,45.1,41.2,29.82,SW,225,0.0,0.0,86,0.00,,,0.00,WUHU21623XXSP,2013-10-07 08:23:00,
2013-10-07 04:28:00,45.1,41.2,29.82,SW,225,0.0,0.0,86,0.00,,,0.00,WUHU21623XXSP,2013-10-07 08:28:00,
2013-10-07 04:33:00,45.1,41.2,29.82,SW,225,0.0,0.0,86,0.00,,,0.00,WUHU21623XXSP,2013-10-07 08:33:00,
2013-10-07 04:36:00,45.1,41.2,29.82,North,0,0.0,0.0,86,0.00,,,0.00,WUHU21623XXSP,2013-10-07 08:36:00,
2013-10-07 04:38:00,45.1,41.2,29.82,SW,225,0.0,0.0,86,0.00,,,0.00,WUHU21623XXSP,2013-10-07 08:38:00,
2013-10-07 04:43:00,45.1,41.2,29.82,North,0,0.0,0.0,86,0.00,,,0.00,WUHU21623XXSP,2013-10-07 08:43:00,
2013-10-07 06:52:00,46.0,42.4,29.85,WNW,292,0.0,0.0,87,0.00,,,0.00,WUHU21623XXSP,2013-10-07 10:52:00,
2013-10-07 06:57:00,46.0,42.4,29.86,WNW,292,0.0,0.0,87,0.00,,,0.00,WUHU21623XXSP,2013-10-07 10:57:00,
2013-10-07 07:02:00,46.0,42.4,29.86,WNW,292,0.0,0.0,87,0.00,,,0.00,WUHU21623XXSP,2013-10-07 11:02:00,
2013-10-07 07:10:00,46.0,42.4,29.86,WNW,292,0.0,0.0,87,0.00,,,0.00,WUHU21623XXSP,2013-10-07 11:10:00,
2013-10-07 07:15:00,46.0,42.4,29.87,WNW,292,0.0,0.0,87,0.00,,,0.00,WUHU21623XXSP,2013-10-07 11:15:00,
2013-10-07 07:16:00,46.0,42.4,29.87,North,0,0.0,0.0,87,0.00,,,0.00,WUHU21623XXSP,2013-10-07 11:16:00,
2013-10-07 07:20:00,46.0,42.4,29.87,WNW,292,0.0,0.0,87,0.00,,,0.00,WUHU21623XXSP,2013-10-07 11:20:00,
2013-10-07 07:25:00,46.0,42.4,29.87,North,0,0.0,0.0,87,0.00,,,0.00,WUHU21623XXSP,2013-10-07 11:25:00,
2013-10-07 07:30:00,45.3,41.4,29.87,North,0,0.0,0.0,86,0.00,,,0.00,WUHU21623XXSP,2013-10-07 11:30:00,
2013-10-07 07:35:00,45.1,41.2,29.87,NW,315,0.0,0.0,86,0.00,,,0.00,WUHU21623XXSP,2013-10-07 11:35:00,
2013-10-07 07:40:00,45.1,41.2,29.88,NW,315,0.0,0.0,86,0.00,,,0.00,WUHU21623XXSP,2013-10-07 11:40:00,
2013-10-07 07:45:00,45.1,41.2,29.88,NW,315,0.0,0.0,86,0.00,,,0.00,WUHU21623XXSP,2013-10-07 11:45:00,
2013-10-07 07:50:00,45.0,41.0,29.88,NW,315,0.0,0.0,86,0.00,,,0.00,WUHU21623XXSP,2013-10-07 11:50:00,
2013-10-07 07:55:00,45.0,41.0,29.88,NW,315,0.0,0.0,86,0.00,,,0.00,WUHU21623XXSP,2013-10-07 11:55:00,
2013-10-07 08:00:00,45.0,41.0,29.89,NW,315,0.0,0.0,86,0.00,,,0.00,WUHU21623XXSP,2013-10-07 12:00:00,
2013-10-07 08:05:00,44.6,40.7,29.89,NNW,337,0.0,0.0,86,0.00,,,0.00,WUHU21623XXSP,2013-10-07 12:05:00,
2013-10-07 08:10:00,44.6,40.7,29.89,NNW,337,0.0,0.0,86,0.00,,,0.00,WUHU21623XXSP,2013-10-07 12:10:00,
2013-10-07 08:15:00,44.6,40.7,29.89,NW,315,0.0,0.0,86,0.00,,,0.00,WUHU21623XXSP,2013-10-07 12:15:00,
2013-10-07 08:20:00,44.6,40.7,29.89,NW,315,0.0,0.0,86,0.00,,,0.00,WUHU21623XXSP,2013-10-07 12:20:00,
2013-10-07 08:25:00,44.6,40.7,29.89,NW,315,0.0,0.0,86,0.00,,,0.00,WUHU21623XXSP,2013-10-07 12:25:00,
2013-10-07 08:30:00,44.4,40.5,29.90,NW,315,0.0,0.0,86,0.00,,,0.00,WUHU21623XXSP,2013-10-07 12:30:00,
2013-10-07 08:35:00,44.4,40.5,29.90,NNW,337,0.0,0.0,86,0.00,,,0.00,WUHU21623XXSP,2013-10-07 12:35:00,
2013-10-07 08:40:00,44.8,40.9,29.90,WSW,247,0.0,0.0,86,0.00,,,0.00,WUHU21623XXSP,2013-10-07 12:40:00,
2013-10-07 08:45:00,44.8,41.2,29.90,WSW,247,0.0,0.0,87,0.00,,,0.00,WUHU21623XXSP,2013-10-07 12:45:00,
2013-10-07 08:50:00,45.0,41.3,29.90,West,270,0.0,0.0,87,0.00,,,0.00,WUHU21623XXSP,2013-10-07 12:50:00,
2013-10-07 08:55:00,45.3,41.7,29.91,West,270,0.0,0.0,87,0.00,,,0.00,WUHU21623XXSP,2013-10-07 12:55:00,
2013-10-07 09:00:00,45.7,42.1,29.91,NW,315,0.0,0.0,87,0.00,,,0.00,WUHU21623XXSP,2013-10-07 13:00:00,
2013-10-07 09:05:00,46.2,42.3,29.91,SSW,202,0.0,0.0,86,0.00,,,0.00,WUHU21623XXSP,2013-10-07 13:05:00,
2013-10-07 09:10:00,46.6,42.6,29.91,WSW,247,0.0,0.0,86,0.00,,,0.00,WUHU21623XXSP,2013-10-07 13:10:00,
2013-10-07 09:15:00,46.6,42.6,29.91,NNW,337,0.0,0.0,86,0.00,,,0.00,WUHU21623XXSP,2013-10-07 13:15:00,
2013-10-07 09:20:00,46.6,42.6,29.92,South,180,0.0,0.0,86,0.00,,,0.00,WUHU21623XXSP,2013-10-07 13:20:00,
2013-10-07 09:25:00,46.6,42.6,29.93,South,180,0.0,0.0,86,0.00,,,0.00,WUHU21623XXSP,2013-10-07 13:25:00,
2013-10-07 09:30:00,46.6,42.3,29.92,NNW,337,0.0,0.0,85,0.00,,,0.00,WUHU21623XXSP,2013-10-07 13:30:00,
2013-10-07 09:35:00,46.6,42.3,29.92,SW,225,0.0,0.0,85,0.00,,,0.00,WUHU21623XXSP,2013-10-07 13:35:00,
2013-10-07 09:40:00,46.6,42.3,29.92,SW,225,0.0,0.0,85,0.00,,,0.00,WUHU21623XXSP,2013-10-07 13:40:00,
2013-10-07 09:45:00,46.8,42.5,29.93,NW,315,0.0,0.0,85,0.00,,,0.00,WUHU21623XXSP,2013-10-07 13:45:00,
2013-10-07 09:50:00,46.8,42.5,29.93,NW,315,0.0,0.0,85,0.00,,,0.00,WUHU21623XXSP,2013-10-07 13:50:00,
2013-10-07 09:55:00,46.8,42.5,29.93,SSW,202,0.0,0.0,85,0.00,,,0.00,WUHU21623XXSP,2013-10-07 13:55:00,
2013-10-07 10:00:00,46.9,42.7,29.93,SSW,202,0.0,0.0,85,0.00,,,0.00,WUHU21623XXSP,2013-10-07 14:00:00,
2013-10-07 10:05:00,46.9,42.7,29.93,SSW,202,0.0,0.0,85,0.00,,,0.00,WUHU21623XXSP,2013-10-07 14:05:00,
2013-10-07 10:10:00,47.1,42.9,29.94,SSW,202,0.0,0.0,85,0.00,,,0.00,WUHU21623XXSP,2013-10-07 14:10:00,
2013-10-07 10:15:00,47.1,42.5,29.94,NNW,337,0.0,0.0,84,0.00,,,0.00,WUHU21623XXSP,2013-10-07 14:15:00,
2013-10-07 10:20:00,47.3,42.7,29.94,NW,315,0.0,0.0,84,0.00,,,0.00,WUHU21623XXSP,2013-10-07 14:20:00,
2013-10-07 10:25:00,47.3,42.7,29.94,North,0,0.0,0.0,84,0.00,,,0.00,WUHU21623XXSP,2013-10-07 14:25:00,
2013-10-07 10:30:00,48.0,43.4,29.95,NW,315,0.0,0.0,84,0.00,,,0.00,WUHU21623XXSP,2013-10-07 14:30:00,
2013-10-07 10:35:00,48.0,43.4,29.95,NNW,337,0.0,0.0,84,0.00,,,0.00,WUHU21623XXSP,2013-10-07 14:35:00,
2013-10-07 10:40:00,48.7,44.1,29.95,NNW,337,0.0,0.0,84,0.00,,,0.00,WUHU21623XXSP,2013-10-07 14:40:00,
2013-10-07 10:45:00,49.1,43.8,29.95,SW,225,0.0,0.0,82,0.00,,,0.00,WUHU21623XXSP,2013-10-07 14:45:00,
2013-10-07 10:50:00,49.6,44.3,29.96,ESE,112,0.0,0.0,82,0.00,,,0.00,WUHU21623XXSP,2013-10-07 14:50:00,
2013-10-07 10:55:00,49.6,44.3,29.96,NW,315,0.0,0.0,82,0.00,,,0.00,WUHU21623XXSP,2013-10-07 14:55:00,
2013-10-07 11:00:00,49.6,44.0,29.96,NW,315,0.0,0.0,81,0.00,,,0.00,WUHU21623XXSP,2013-10-07 15:00:00,
2013-10-07 11:05:00,49.3,43.7,29.96,WSW,247,0.0,0.0,81,0.00,,,0.00,WUHU21623XXSP,2013-10-07 15:05:00,
2013-10-07 11:10:00,49.0,43.4,29.96,WSW,247,0.0,0.0,81,0.00,,,0.00,WUHU21623XXSP,2013-10-07 15:10:00,
2013-10-07 11:15:00,48.8,43.0,29.96,NNW,337,0.0,0.0,80,0.00,,,0.00,WUHU21623XXSP,2013-10-07 15:15:00,
2013-10-07 11:20:00,48.6,42.7,29.96,North,0,0.0,0.0,80,0.00,,,0.00,WUHU21623XXSP,2013-10-07 15:20:00,
2013-10-07 11:25:00,48.7,42.8,29.96,NW,315,0.0,0.0,80,0.00,,,0.00,WUHU21623XXSP,2013-10-07 15:25:00,
2013-10-07 11:30:00,48.6,42.8,29.96,SW,225,0.0,0.0,80,0.00,,,0.00,WUHU21623XXSP,2013-10-07 15:30:00,
2013-10-07 11:35:00,49.2,43.0,29.96,NNW,337,0.0,0.0,79,0.00,,,0.00,WUHU21623XXSP,2013-10-07 15:35:00,
2013-10-07 11:40:00,49.2,42.7,29.96,WSW,247,0.0,0.0,78,0.00,,,0.00,WUHU21623XXSP,2013-10-07 15:40:00,
2013-10-07 11:45:00,49.6,43.1,29.96,West,270,0.0,0.0,78,0.00,,,0.00,WUHU21623XXSP,2013-10-07 15:45:00,
2013-10-07 11:50:00,49.6,42.7,29.96,West,270,0.0,0.0,77,0.00,,,0.00,WUHU21623XXSP,2013-10-07 15:50:00,
2013-10-07 11:55:00,49.6,42.4,29.97,NW,315,0.0,0.0,76,0.00,,,0.00,WUHU21623XXSP,2013-10-07 15:55:00,
2013-10-07 12:00:00,49.4,42.2,29.97,ESE,112,0.0,0.0,76,0.00,,,0.00,WUHU21623XXSP,2013-10-07 16:00:00,
2013-10-07 12:05:00,49.1,41.9,29.97,NW,315,0.0,0.0,76,0.00,,,0.00,WUHU21623XXSP,2013-10-07 16:05:00,
2013-10-07 12:10:00,48.8,41.7,29.97,NW,315,0.0,0.0,76,0.00,,,0.00,WUHU21623XXSP,2013-10-07 16:10:00,
2013-10-07 12:15:00,49.7,41.8,29.97,WSW,247,0.0,0.0,74,0.00,,,0.00,WUHU21623XXSP,2013-10-07 16:15:00,
2013-10-07 12:20:00,49.5,41.6,29.97,WSW,247,0.0,0.0,74,0.00,,,0.00,WUHU21623XXSP,2013-10-07 16:20:00,
2013-10-07 12:25:00,49.5,41.7,29.97,SW,225,0.0,0.0,74,0.00,,,0.00,WUHU21623XXSP,2013-10-07 16:25:00,
2013-10-07 12:30:00,49.3,41.5,29.97,SW,225,0.0,0.0,74,0.00,,,0.00,WUHU21623XXSP,2013-10-07 16:30:00,
2013-10-07 12:35:00,49.1,41.3,29.97,SW,225,0.0,0.0,74,0.00,,,0.00,WUHU21623XXSP,2013-10-07 16:35:00,
2013-10-07 12:40:00,49.0,41.1,29.97,SW,225,0.0,0.0,74,0.00,,,0.00,WUHU21623XXSP,2013-10-07 16:40:00,
2013-10-07 12:45:00,49.6,40.7,29.97,NW,315,0.0,0.0,71,0.00,,,0.00,WUHU21623XXSP,2013-10-07 16:45:00,
2013-10-07 12:50:00,49.4,40.5,29.98,NW,315,0.0,0.0,71,0.00,,,0.00,WUHU21623XXSP,2013-10-07 16:50:00,
2013-10-07 12:55:00,49.3,40.4,29.98,NNW,337,0.0,0.0,71,0.00,,,0.00,WUHU21623XXSP,2013-10-07 16:55:00,
2013-10-07 13:00:00,48.9,40.0,29.98,NNW,337,0.0,0.0,71,0.00,,,0.00,WUHU21623XXSP,2013-10-07 17:00:00,
2013-10-07 13:05:00,48.8,39.9,29.98,NW,315,0.0,0.0,71,0.00,,,0.00,WUHU21623XXSP,2013-10-07 17:05:00,
2013-10-07 13:10:00,48.6,39.8,29.98,NW,315,0.0,0.0,71,0.00,,,0.00,WUHU21623XXSP,2013-10-07 17:10:00,
2013-10-07 13:15:00,48.2,39.7,29.98,NW,315,0.0,0.0,72,0.00,,,0.00,WUHU21623XXSP,2013-10-07 17:15:00,
2013-10-07 13:20:00,48.3,39.8,29.98,North,0,0.0,0.0,72,0.00,,,0.00,WUHU21623XXSP,2013-10-07 17:20:00,
2013-10-07 13:25:00,48.3,39.8,29.98,North,0,0.0,0.0,72,0.00,,,0.00,WUHU21623XXSP,2013-10-07 17:25:00,
2013-10-07 13:30:00,47.9,39.4,29.98,NNW,337,0.0,0.0,72,0.00,,,0.00,WUHU21623XXSP,2013-10-07 17:30:00,
2013-10-07 13:35:00,47.9,39.4,29.99,NNW,337,0.0,0.0,72,0.00,,,0.00,WUHU21623XXSP,2013-10-07 17:35:00,
2013-10-07 13:40:00,48.1,39.9,29.99,NNE,22,0.0,0.0,73,0.00,,,0.00,WUHU21623XXSP,2013-10-07 17:40:00,
2013-10-07 13:45:00,48.3,40.1,29.99,WNW,292,0.0,0.0,73,0.00,,,0.00,WUHU21623XXSP,2013-10-07 17:45:00,
2013-10-07 13:50:00,48.2,40.1,29.99,NW,315,0.0,0.0,73,0.00,,,0.00,WUHU21623XXSP,2013-10-07 17:50:00,
2013-10-07 13:55:00,48.2,40.4,29.99,WNW,292,0.0,0.0,74,0.00,,,0.00,WUHU21623XXSP,2013-10-07 17:55:00,
2013-10-07 14:01:00,48.2,40.4,29.99,WNW,292,0.0,0.0,74,0.00,,,0.00,WUHU21623XXSP,2013-10-07 18:01:00,
2013-10-07 14:06:00,47.9,40.1,30.00,WNW,292,0.0,0.0,74,0.00,,,0.00,WUHU21623XXSP,2013-10-07 18:06:00,
2013-10-07 14:11:00,47.7,40.3,29.99,WNW,292,0.0,0.0,75,0.00,,,0.00,WUHU21623XXSP,2013-10-07 18:11:00,
2013-10-07 14:16:00,47.6,40.1,30.00,NNW,337,0.0,0.0,75,0.00,,,0.00,WUHU21623XXSP,2013-10-07 18:16:00,
2013-10-07 14:21:00,47.6,40.2,30.00,WSW,247,0.0,0.0,75,0.00,,,0.00,WUHU21623XXSP,2013-10-07 18:21:00,
2013-10-07 14:26:00,47.7,40.5,30.00,NW,315,0.0,0.0,76,0.00,,,0.00,WUHU21623XXSP,2013-10-07 18:26:00,
2013-10-07 14:31:00,47.6,40.4,30.00,SW,225,0.0,0.0,76,0.00,,,0.00,WUHU21623XXSP,2013-10-07 18:31:00,
2013-10-07 14:36:00,47.6,40.5,30.00,WSW,247,0.0,0.0,76,0.00,,,0.00,WUHU21623XXSP,2013-10-07 18:36:00,
2013-10-07 14:41:00,47.5,40.4,30.00,NNW,337,0.0,0.0,76,0.00,,,0.00,WUHU21623XXSP,2013-10-07 18:41:00,
2013-10-07 14:46:00,47.7,40.5,30.00,NNW,337,0.0,0.0,76,0.00,,,0.00,WUHU21623XXSP,2013-10-07 18:46:00,
2013-10-07 14:51:00,47.7,40.6,30.00,SW,225,0.0,0.0,76,0.00,,,0.00,WUHU21623XXSP,2013-10-07 18:51:00,
2013-10-07 14:56:00,47.6,40.8,30.00,SSW,202,0.0,0.0,77,0.00,,,0.00,WUHU21623XXSP,2013-10-07 18:56:00,
2013-10-07 15:01:00,47.8,41.0,30.01,SW,225,0.0,0.0,77,0.00,,,0.00,WUHU21623XXSP,2013-10-07 19:01:00,
2013-10-07 15:06:00,47.9,41.4,30.01,NW,315,0.0,0.0,78,0.00,,,0.00,WUHU21623XXSP,2013-10-07 19:06:00,
2013-10-07 15:11:00,48.1,41.6,30.01,NNW,337,0.0,0.0,78,0.00,,,0.00,WUHU21623XXSP,2013-10-07 19:11:00,
2013-10-07 15:16:00,48.6,42.1,30.01,NNW,337,0.0,0.0,78,0.00,,,0.00,WUHU21623XXSP,2013-10-07 19:16:00,
2013-10-07 15:21:00,49.2,42.7,30.01,NW,315,0.0,0.0,78,0.00,,,0.00,WUHU21623XXSP,2013-10-07 19:21:00,
2013-10-07 15:26:00,49.6,42.7,30.01,NW,315,0.0,0.0,77,0.00,,,0.00,WUHU21623XXSP,2013-10-07 19:26:00,
2013-10-07 15:31:00,50.3,43.4,30.01,NNW,337,0.0,0.0,77,0.00,,,0.00,WUHU21623XXSP,2013-10-07 19:31:00,
2013-10-07 15:36:00,50.5,43.6,30.01,WSW,247,0.0,0.0,77,0.00,,,0.00,WUHU21623XXSP,2013-10-07 19:36:00,
2013-10-07 15:41:00,51.1,44.3,30.01,West,270,0.0,0.0,77,0.00,,,0.00,WUHU21623XXSP,2013-10-07 19:41:00,
2013-10-07 15:46:00,51.7,44.4,30.01,NW,315,0.0,0.0,76,0.00,,,0.00,WUHU21623XXSP,2013-10-07 19:46:00,
2013-10-07 15:51:00,52.1,44.9,30.01,NW,315,0.0,0.0,76,0.00,,,0.00,WUHU21623XXSP,2013-10-07 19:51:00,
2013-10-07 15:56:00,52.8,45.5,30.02,WSW,247,0.0,0.0,76,0.00,,,0.00,WUHU21623XXSP,2013-10-07 19:56:00,
2013-10-07 16:01:00,53.4,45.7,30.01,NW,315,0.0,0.0,75,0.00,,,0.00,WUHU21623XXSP,2013-10-07 20:01:00,
2013-10-07 16:06:00,53.6,46.0,30.02,NW,315,0.0,0.0,75,0.00,,,0.00,WUHU21623XXSP,2013-10-07 20:06:00,
2013-10-07 16:11:00,53.9,46.2,30.02,NW,315,0.0,0.0,75,0.00,,,0.00,WUHU21623XXSP,2013-10-07 20:11:00,
2013-10-07 16:16:00,54.2,46.2,30.01,West,270,0.0,0.0,74,0.00,,,0.00,WUHU21623XXSP,2013-10-07 20:16:00,
2013-10-07 16:21:00,54.5,46.8,30.02,WNW,292,0.0,0.0,75,0.00,,,0.00,WUHU21623XXSP,2013-10-07 20:21:00,
2013-10-07 16:26:00,54.9,47.3,30.02,NNW,337,0.0,0.0,75,0.00,,,0.00,WUHU21623XXSP,2013-10-07 20:26:00,
2013-10-07 16:31:00,55.3,47.2,30.02,NNW,337,0.0,0.0,74,0.00,,,0.00,WUHU21623XXSP,2013-10-07 20:31:00,
2013-10-07 16:36:00,55.9,47.9,30.01,NW,315,0.0,0.0,74,0.00,,,0.00,WUHU21623XXSP,2013-10-07 20:36:00,
2013-10-07 16:41:00,56.4,48.4,30.01,WNW,292,0.0,0.0,74,0.00,,,0.00,WUHU21623XXSP,2013-10-07 20:41:00,
2013-10-07 16:46:00,57.1,47.9,30.01,NW,315,0.0,0.0,71,0.00,,,0.00,WUHU21623XXSP,2013-10-07 20:46:00,
2013-10-07 16:51:00,57.6,48.3,30.02,NW,315,0.0,0.0,71,0.00,,,0.00,WUHU21623XXSP,2013-10-07 20:51:00,
2013-10-07 16:56:00,58.1,48.5,30.02,NW,315,0.0,0.0,70,0.00,,,0.00,WUHU21623XXSP,2013-10-07 20:56:00,
2013-10-07 17:01:00,58.6,48.5,30.02,NNW,337,0.0,0.0,69,0.00,,,0.00,WUHU21623XXSP,2013-10-07 21:01:00,
2013-10-07 17:06:00,58.8,48.7,30.02,NNW,337,0.0,0.0,69,0.00,,,0.00,WUHU21623XXSP,2013-10-07 21:06:00,
2013-10-07 17:11:00,58.8,48.7,30.02,NNW,337,0.0,0.0,69,0.00,,,0.00,WUHU21623XXSP,2013-10-07 21:11:00,
2013-10-07 17:16:00,58.8,47.9,30.03,NW,315,0.0,0.0,67,0.00,,,0.00,WUHU21623XXSP,2013-10-07 21:16:00,
2013-10-07 17:21:00,58.8,47.9,30.03,NW,315,0.0,0.0,67,0.00,,,0.00,WUHU21623XXSP,2013-10-07 21:21:00,
2013-10-07 17:26:00,58.8,47.9,30.03,NW,315,0.0,0.0,67,0.00,,,0.00,WUHU21623XXSP,2013-10-07 21:26:00,
2013-10-07 17:31:00,58.8,47.9,30.03,NW,315,0.0,0.0,67,0.00,,,0.00,WUHU21623XXSP,2013-10-07 21:31:00,
2013-10-07 17:36:00,58.8,47.9,30.03,WNW,292,0.0,0.0,67,0.00,,,0.00,WUHU21623XXSP,2013-10-07 21:36:00,
2013-10-07 17:41:00,58.8,47.9,30.03,WNW,292,0.0,0.0,67,0.00,,,0.00,WUHU21623XXSP,2013-10-07 21:41:00,
2013-10-07 17:46:00,58.8,47.9,30.03,WNW,292,0.0,0.0,67,0.00,,,0.00,WUHU21623XXSP,2013-10-07 21:46:00,
2013-10-07 17:51:00,58.8,48.3,30.03,NW,315,0.0,0.0,68,0.00,,,0.00,WUHU21623XXSP,2013-10-07 21:51:00,
2013-10-07 17:56:00,58.8,47.9,30.03,NW,315,0.0,0.0,67,0.00,,,0.00,WUHU21623XXSP,2013-10-07 21:56:00,
2013-10-07 18:01:00,58.8,48.3,30.03,NW,315,0.0,0.0,68,0.00,,,0.00,WUHU21623XXSP,2013-10-07 22:01:00,
2013-10-07 18:06:00,58.8,48.3,30.03,NW,315,0.0,0.0,68,0.00,,,0.00,WUHU21623XXSP,2013-10-07 22:06:00,
2013-10-07 18:11:00,58.8,48.3,30.03,NW,315,0.0,0.0,68,0.00,,,0.00,WUHU21623XXSP,2013-10-07 22:11:00,
2013-10-07 18:16:00,58.6,48.1,30.04,WNW,292,0.0,0.0,68,0.00,,,0.00,WUHU21623XXSP,2013-10-07 22:16:00,
2013-10-07 18:21:00,58.5,47.9,30.04,WNW,292,0.0,0.0,68,0.00,,,0.00,WUHU21623XXSP,2013-10-07 22:21:00,
2013-10-07 18:26:00,58.3,47.7,30.04,WNW,292,0.0,0.0,68,0.00,,,0.00,WUHU21623XXSP,2013-10-07 22:26:00,
2013-10-07 18:31:00,58.1,47.6,30.04,WNW,292,0.0,0.0,68,0.00,,,0.00,WUHU21623XXSP,2013-10-07 22:31:00,
2013-10-07 18:36:00,57.9,47.8,30.04,WNW,292,0.0,0.0,69,0.00,,,0.00,WUHU21623XXSP,2013-10-07 22:36:00,
2013-10-07 18:41:00,57.7,47.6,30.05,WNW,292,0.0,0.0,69,0.00,,,0.00,WUHU21623XXSP,2013-10-07 22:41:00,
2013-10-07 18:46:00,57.4,47.7,30.05,WNW,292,0.0,0.0,70,0.00,,,0.00,WUHU21623XXSP,2013-10-07 22:46:00,
2013-10-07 18:51:00,57.4,47.7,30.05,WNW,292,0.0,0.0,70,0.00,,,0.00,WUHU21623XXSP,2013-10-07 22:51:00,
2013-10-07 18:56:00,56.8,47.2,30.05,WNW,292,0.0,0.0,70,0.00,,,0.00,WUHU21623XXSP,2013-10-07 22:56:00,
2013-10-07 19:01:00,56.8,47.5,30.05,WNW,292,0.0,0.0,71,0.00,,,0.00,WUHU21623XXSP,2013-10-07 23:01:00,
2013-10-07 19:06:00,56.8,47.5,30.05,WNW,292,0.0,0.0,71,0.00,,,0.00,WUHU21623XXSP,2013-10-07 23:06:00,
2013-10-07 19:11:00,56.1,46.9,30.06,WNW,292,0.0,0.0,71,0.00,,,0.00,WUHU21623XXSP,2013-10-07 23:11:00,
2013-10-07 19:16:00,55.8,46.5,30.06,WNW,292,0.0,0.0,71,0.00,,,0.00,WUHU21623XXSP,2013-10-07 23:16:00,
2013-10-07 19:21:00,55.4,46.2,30.06,WNW,292,0.0,0.0,71,0.00,,,0.00,WUHU21623XXSP,2013-10-07 23:21:00,
2013-10-07 19:26:00,55.0,46.2,30.06,WNW,292,0.0,0.0,72,0.00,,,0.00,WUHU21623XXSP,2013-10-07 23:26:00,
2013-10-07 19:31:00,54.9,46.0,30.07,WNW,292,0.0,0.0,72,0.00,,,0.00,WUHU21623XXSP,2013-10-07 23:31:00,
2013-10-07 19:36:00,54.5,45.7,30.07,WNW,292,0.0,0.0,72,0.00,,,0.00,WUHU21623XXSP,2013-10-07 23:36:00,
2013-10-07 19:41:00,54.1,45.3,30.07,WNW,292,0.0,0.0,72,0.00,,,0.00,WUHU21623XXSP,2013-10-07 23:41:00,
2013-10-07 19:46:00,54.1,45.3,30.07,WNW,292,0.0,0.0,72,0.00,,,0.00,WUHU21623XXSP,2013-10-07 23:46:00,
2013-10-07 19:51:00,53.4,44.6,30.08,WNW,292,0.0,0.0,72,0.00,,,0.00,WUHU21623XXSP,2013-10-07 23:51:00,
2013-10-07 19:56:00,53.2,44.8,30.08,WNW,292,0.0,0.0,73,0.00,,,0.00,WUHU21623XXSP,2013-10-07 23:56:00,
2013-10-07 20:01:00,52.9,44.5,30.08,WNW,292,0.0,0.0,73,0.00,,,0.00,WUHU21623XXSP,2013-10-08 00:01:00,
2013-10-07 20:06:00,52.9,44.8,30.08,WNW,292,0.0,0.0,74,0.00,,,0.00,WUHU21623XXSP,2013-10-08 00:06:00,
2013-10-07 20:11:00,52.9,44.8,30.08,WNW,292,0.0,0.0,74,0.00,,,0.00,WUHU21623XXSP,2013-10-08 00:11:00,
2013-10-07 20:16:00,52.9,44.8,30.08,WNW,292,0.0,0.0,74,0.00,,,0.00,WUHU21623XXSP,2013-10-08 00:16:00,
2013-10-07 20:21:00,52.9,44.8,30.09,WNW,292,0.0,0.0,74,0.00,,,0.00,WUHU21623XXSP,2013-10-08 00:21:00,
2013-10-07 20:23:00,52.9,44.8,30.09,North,0,0.0,0.0,74,0.00,,,0.00,WUHU21623XXSP,2013-10-08 00:23:00,
2013-10-07 20:26:00,52.9,44.8,30.09,WNW,292,0.0,0.0,74,0.00,,,0.00,WUHU21623XXSP,2013-10-08 00:26:00,
2013-10-07 20:31:00,52.9,44.8,30.09,North,0,0.0,0.0,74,0.00,,,0.00,WUHU21623XXSP,2013-10-08 00:31:00,